Regional Weather Roundup
Issued by NWS Albany, NY

Home | Current Version | Previous Version | Text Only | Print | Product List | Glossary On
Versions: 1 2 3 4 5 6 7 8 9 10 11 12 13 14 15 16 17 18 19 20 21 22 23 24 25 26 27 28 29 30 31 32 33 34 35 36 37 38 39 40 41 42 43 44 45 46 47 48 49 50
000
ASUS41 KALY 041110
RWRALY

NEW YORK STATE HOURLY WEATHER ROUNDUP
NATIONAL WEATHER SERVICE ALBANY NY
700 AM EDT MON MAY 04 2015

NOTE: "FAIR" INDICATES FEW OR NO CLOUDS BELOW 12,000 FEET WITH NO
SIGNIFICANT WEATHER AND/OR NO OBSTRUCTIONS TO VISIBILITY.

NYZ032-033-038>043-046>054-057>066-NYZ062>081-041200-
EAST


CITY           SKY/WX    TMP DP  RH WIND       PRES   REMARKS
ALBANY         MOSUNNY   57  41  55 S5        30.16R
GLENS FALLS    MOSUNNY   48  43  82 CALM      30.16R
POUGHKEEPSIE   SUNNY     48  43  82 CALM      30.18R
NEWBURGH       SUNNY     50  45  81 CALM      30.20R
MONTGOMERY     SUNNY     46  43  89 CALM      30.18R
WHITE PLAINS   SUNNY     50  47  89 CALM      30.20R
ISLIP          MOSUNNY   53  51  93 CALM      30.20R
NEW YORK CITY  MOSUNNY   54  46  74 NE3       30.20R
CENTRAL PARK   SUNNY     58  47  66 CALM      30.23R
$$

NYZ005>009-017-018-044>046-055-056-041200-
CENTRAL


CITY           SKY/WX    TMP DP  RH WIND       PRES   REMARKS
FULTON         CLOUDY    52  45  77 SE3       30.11R
SYRACUSE       PTSUNNY   55  46  71 E6        30.11R
ROME           PTSUNNY   48  42  80 CALM      30.15R
ELMIRA         MOCLDY    45  43  93 CALM      30.18R
BINGHAMTON     MOSUNNY   53  37  54 S6        30.18R
MONTICELLO     SUNNY     46  37  71 CALM      30.22R
$$

NYZ026>034-041>043-041200-
NORTH


CITY           SKY/WX    TMP DP  RH WIND       PRES   REMARKS
WATERTOWN      PTSUNNY   61  41  47 CALM      30.08R
FORT DRUM      NOT AVBL
MASSENA        SUNNY     60  41  49 SW7       30.06R
SARANAC LAKE   SUNNY     37  34  89 CALM      30.12R
PLATTSBURGH    SUNNY     48  43  82 CALM      30.09R
$$

NYZ001>004-010>016-019>021-041200-
WEST


CITY           SKY/WX    TMP DP  RH WIND       PRES   REMARKS
NIAGARA FALLS  PTCLDY    58  42  55 S6        30.08R
BUFFALO        PTCLDY    58  40  51 S7        30.09R
DUNKIRK        PTCLDY    64  41  42 S14G23    30.10R
JAMESTOWN      MOCLDY    55  39  54 S7        30.16R
WELLSVILLE     MOCLDY    61  38  42 SW9       30.19R
ROCHESTER      PTCLDY    60  39  45 SW12      30.11R
PENN YAN       PTCLDY    54  41  61 SW8       30.14R
$$

             KEY
       WCI = WIND CHILL INDEX
       VSB = VISIBILITY
       HX  = HEAT INDEX
$$



USA.gov is the U.S. government's official web portal to all federal, state and local government web resources and services.